Flag for Germany Weather past 2 weeks in Sonneberg, Thuringia, Germany

Now
37 °F

Overcast.


Feels Like: 28 °F
Forecast: 35 / 41 °F
Wind: 15 mph from Southwest

Location: Hof Airport

Current Time: Dec 21, 2014 at 7:09:42 PM

Latest Report: Dec 21, 2014 at 6:20 PM


Visibility: N/A

Pressure: 30.27 "Hg

Humidity: 81%

Dew point: 32 °F

Location of SonnebergLocation

Historic Weather in Sonneberg — Graph

°F

Sonneberg temperature yesterday

Maximum temperature yesterday: 36 °F (at 8:50 AM)
Minimum temperature yesterday: 36 °F (at 8:50 AM)
Average temperature yesterday: 36 °F

Past Weeks' High & Low Weather Summary

 TemperatureHumidityPressure
High46 °F (Dec 18, 4:50 PM)100% (Dec 7, 10:50 AM)30.36 "Hg (Dec 7, 10:50 AM)
Low27 °F (Dec 9, 7:50 AM)66% (Dec 15, 2:20 PM)29.59 "Hg (Dec 12, 6:20 PM)
Average37 °F88%29.96 "Hg
* Reported Dec 6 5:20 PM — Dec 21 5:50 PM, Sonneberg, Weather by CustomWeather, © 2014

Note: Actual official high and low records may vary slightly from our data, if they occured in-between our weather recording intervals... More about our weather records

Advertising

Sonneberg weather history for previous 24 hours

 ConditionsComfort  
Time TempWeatherWind HumidityBarometerVisibility
5:50 PM
Dec 21
37 °FPassing clouds.15 mph81%30.27 "HgN/A
5:20 PM36 °FPartly cloudy.16 mph87%30.27 "HgN/A
4:50 PM37 °FPartly cloudy.17 mph81%30.27 "HgN/A
4:20 PM37 °FPassing clouds.17 mph81%30.27 "HgN/A
3:50 PM37 °FBroken clouds.17 mph81%30.30 "HgN/A
3:20 PM36 °FMostly cloudy.15 mph87%30.30 "HgN/A
2:50 PM36 °FLight rain. Broken clouds.14 mph87%30.30 "Hg5 mi
2:20 PM37 °FBroken clouds.14 mph81%30.33 "HgN/A
1:50 PM36 °FBroken clouds.14 mph87%30.33 "HgN/A
1:20 PM36 °FMostly cloudy.14 mph87%30.33 "HgN/A
12:50 PM36 °FBroken clouds.13 mph87%30.33 "HgN/A
12:20 PM36 °FPartly sunny.12 mph87%30.33 "HgN/A
11:50 AM36 °FMore clouds than sun.16 mph87%30.36 "HgN/A
11:20 AM36 °FBroken clouds.13 mph87%30.36 "HgN/A
10:50 AM36 °FPartly sunny.15 mph81%30.36 "HgN/A
10:20 AM36 °FScattered clouds.17 mph81%30.36 "HgN/A
9:50 AM36 °FScattered clouds.18 mph81%30.33 "HgN/A
9:20 AM34 °FScattered clouds.15 mph87%30.33 "HgN/A
8:50 AM34 °FScattered clouds.18 mph87%30.33 "HgN/A
Weather by CustomWeather, © 2014

See weather overviewHow to use our weather pages